Dallas/Ft Worth, TX

11:36 PM CST on December 12, 2017 (GMT -0600)
Dallas-Fort Worth International

Weather History for KDFW - March, 2013

Change the Weather History Date:

Sunday, March 31, 2013

  Actual Average Record
Temperature  
Mean Temperature 67 °F 62 °F  
Max Temperature 74 °F 73 °F 96 °F (1974)
Min Temperature 59 °F 51 °F 28 °F (1987)
Degree Days  
Heating Degree Days 0 5  
Month to date heating degree days 279 261  
Since 1 July heating degree days 1869 2193  
Cooling Degree Days 2 2  
Month to date cooling degree days 21 32  
Year to date cooling degree days 33 39  
Growing Degree Days 17 (Base 50)    
Moisture  
Dew Point 56 °F    
Average Humidity 70    
Maximum Humidity 93    
Minimum Humidity 46    
Precipitation  
Precipitation 0.01 in 0.11 in 1.92 in (1916)
Month to date precipitation 2.27 3.49  
Year to date precipitation 8.01 8.28  
Snow  
Snow 0.00 in 0.00 in 0.00 in ()
Month to date snowfall 0.0 0.2  
Since 1 July snowfall 0.8 1.6  
Snow Depth 0.00 in    
Sea Level Pressure  
Sea Level Pressure 29.90 in    
Wind  
Wind Speed 10 mph (NE)    
Max Wind Speed 28 mph    
Max Gust Speed 33 mph    
Visibility 10 miles    
Events Rain    
T = Trace of Precipitation, MM = Missing Value Source: NWS Daily Summary

Daily Weather History Graph

Daily Weather History Graph

Search for Another Location

Airport or City:

Trip Planner

Search our weather history database for the weather conditions in past years. The results will help you decide how hot, cold, wet, or windy it might be!

Date:

Astronomy

Mar. 31, 2013 Rise Set
Actual Time 7:17 AM CDT 7:47 PM CDT
Civil Twilight 6:52 AM CDT 8:12 PM CDT
Nautical Twilight 6:23 AM CDT 8:41 PM CDT
Astronomical Twilight 5:53 AM CDT 9:11 PM CDT
Moon No Moon Rise 10:19 AM CDT (3/31)
Length of Visible Light 13h 20m
Length of Day
12h 30m
Waning Gibbous, 77% of the Moon is Illuminated
Mar 31
Waning Gibbous
Apr 2
Last Quarter
Apr 10
New
Apr 18
First Quarter
Apr 25
Full

Hourly Weather History & Observations

Time (CDT) Temp. Dew Point Humidity Pressure Visibility Wind Dir Wind Speed Gust Speed Precip Events Conditions
12:53 AM 64.9 °F 59.0 °F 81% 29.86 in 10.0 mi SSE 5.8 mph - N/A   Scattered Clouds
1:53 AM 66.0 °F 59.0 °F 78% 29.85 in 10.0 mi South 8.1 mph - N/A   Scattered Clouds
2:53 AM 64.9 °F 59.0 °F 81% 29.85 in 10.0 mi SSE 8.1 mph - N/A   Mostly Cloudy
3:53 AM 64.0 °F 60.1 °F 87% 29.83 in 10.0 mi SSE 8.1 mph - N/A   Mostly Cloudy
4:53 AM 64.9 °F 61.0 °F 87% 29.81 in 10.0 mi South 12.7 mph - N/A   Scattered Clouds
5:53 AM 64.9 °F 61.0 °F 87% 29.79 in 10.0 mi South 15.0 mph - N/A   Scattered Clouds
6:24 AM 64.9 °F 62.1 °F 90% 29.80 in 10.0 mi South 15.0 mph - N/A   Mostly Cloudy
6:53 AM 64.4 °F 62.6 °F 94% 29.78 in 10.0 mi South 16.1 mph - N/A   Mostly Cloudy
7:43 AM 66.2 °F 62.6 °F 88% 29.87 in 10.0 mi NW 23.0 mph 28.8 mph N/A   Overcast
7:53 AM 64.4 °F 60.8 °F 88% 29.88 in 10.0 mi WNW 25.3 mph 32.2 mph N/A   Overcast
8:12 AM 64.0 °F 60.1 °F 87% 29.91 in 10.0 mi North 18.4 mph - 0.00 in Rain Light Rain
8:39 AM 61.0 °F 57.0 °F 87% 29.93 in 8.0 mi NNE 13.8 mph 25.3 mph 0.01 in Rain Light Rain
8:53 AM 62.1 °F 57.0 °F 84% 29.93 in 10.0 mi North 15.0 mph - 0.01 in   Mostly Cloudy
9:53 AM 64.0 °F 57.0 °F 78% 29.94 in 10.0 mi North 13.8 mph 23.0 mph N/A   Mostly Cloudy
10:19 AM 63.0 °F 55.0 °F 75% 29.97 in 10.0 mi NNE 16.1 mph - N/A   Mostly Cloudy
10:53 AM 63.0 °F 55.0 °F 75% 29.96 in 10.0 mi NE 12.7 mph - N/A   Mostly Cloudy
11:41 AM 66.0 °F 55.0 °F 68% 29.98 in 10.0 mi NNE 8.1 mph - N/A   Mostly Cloudy
11:53 AM 68.0 °F 57.0 °F 68% 29.96 in 10.0 mi ENE 12.7 mph 23.0 mph N/A   Mostly Cloudy
12:53 PM 66.9 °F 55.9 °F 68% 29.97 in 10.0 mi NE 8.1 mph - N/A   Mostly Cloudy
1:53 PM 70.0 °F 55.0 °F 59% 29.96 in 10.0 mi North 5.8 mph - N/A   Mostly Cloudy
2:53 PM 72.0 °F 54.0 °F 53% 29.95 in 10.0 mi North 11.5 mph - N/A   Mostly Cloudy
3:53 PM 73.0 °F 52.0 °F 48% 29.93 in 10.0 mi North 10.4 mph - N/A   Mostly Cloudy
4:53 PM 73.9 °F 51.1 °F 45% 29.91 in 10.0 mi North 12.7 mph - N/A   Scattered Clouds
5:53 PM 73.0 °F 52.0 °F 48% 29.90 in 10.0 mi North 12.7 mph - N/A   Partly Cloudy
6:53 PM 71.1 °F 50.0 °F 47% 29.91 in 10.0 mi NNE 10.4 mph - N/A   Partly Cloudy
7:53 PM 66.0 °F 51.1 °F 59% 29.92 in 10.0 mi NE 6.9 mph - N/A   Partly Cloudy
8:53 PM 64.0 °F 51.1 °F 63% 29.94 in 10.0 mi NNE 6.9 mph - N/A   Partly Cloudy
9:53 PM 63.0 °F 50.0 °F 63% 29.95 in 10.0 mi NE 4.6 mph - N/A   Partly Cloudy
10:53 PM 62.1 °F 48.9 °F 62% 29.97 in 10.0 mi NE 4.6 mph - N/A   Clear
11:53 PM 60.1 °F 48.9 °F 67% 29.97 in 10.0 mi Calm Calm - N/A   Clear